User: anonymous   Login
Location: ??????
(55.6500°N, 37.8000°E)
Time: 07:21:52
(UTC+00:00)
Language:

Cosmos 2112 Rocket - Orbit

View from above orbital plane
View from above orbital plane
View from above satellite
View from above satellite

Ground track
Ground track

The orbit data is extracted from the following two-line orbital elements,

1 21015U 90111B   24166.90283933  .00000354  00000-0  12905-3 0  9999
2 21015  74.0493 130.5455 0020550 125.3314 234.9764 14.36577486852845
Epoch (UTC): 14 June 2024 21:40:05
Eccentricity: 0.0020550
inclination: 74.0493°
perigee height: 755 km
apogee height: 784 km
right ascension of ascending node: 130.5455°
argument of perigee: 125.3314°
revolutions per day: 14.36577486
mean anomaly at epoch: 234.9764°
orbit number at epoch: 85284

The dashed part of the orbit path shows where the satellite is in the earth's shadow,  

DLR